Showing default

MIDAS 7/ERS 10, 622

Orbit data source: Space-Track

MIDAS 7/ERS 10, 622 is a payload satellite owned by USAF SSD (US) in LEO that was launched on Fri, 19 Jul 1963 UTC via an ATLAS AGENA B launch vehicle from the Air Force Western Test Range (AFWTR). Payload-class satellites include a variety of spacecraft equipped with specific instruments for various scientific and technological missions. These include communications satellites like Starlink; space stations such as the ISS; scientific satellites like the Hubble; Earth observation satellites from companies like Planet Labs, Umbra, and HawkEye 360; GPS; miniature CubeSats for education and research; and military/defense satellites.

Loading next visibility...
Identifier
622, 1963-030A
Orbit
LEO
Country
Flag of USUS
Related business
Manufacturer
LMSC
Mission
Spacecraft
Bus & Motor
MIDAS, Unknown motor
Mass
~1,540 kg wet, ~840 kg dry
Launch date (UTC)
1963-07-19 (62 years ago)
Launch vehicle
ATLAS AGENA B
Launch site
Air Force Western Test Range (AFWTR)
Object type
Payload
Rocket body
Debris
Shape & HBR
Unknown
Radar Cross Section
Large (>1 m²)

Expand to show TLE details & history
Last TLE update: 17 hours ago

TLE from 17 hours ago
0 MIDAS 7/ERS 10
1   622U 63030A   25298.18127917  .00000021  00000-0  93860-2 0  9995
2   622  88.4318 224.1804 0030894 295.7051  64.0611  8.57932393439629
Epoch: 2025-10-25T04:21Z
TLE epoch observation values (Epoch: 2025-10-25T04:21:02.520Z)
Latitude
0.00002°
Longitude
125.10439°
Altitude
3,689.863 km
Speed
6.297 km/s
True Right ascension
14h 56m 43s
True Declination
0° 00' 00"
Sunlit
Object was in daylight at epoch
Visualization orbit readout
Latitude
Unknown
Longitude
Unknown
Altitude
Unknown
Speed
Unknown
Apparent Right ascension
Unknown
Apparent Declination
Unknown
Sunlit
N/A
Visualization observer readout
Local Sidereal Time
17:08:14
Azimuth
Unknown
Elevation
Unknown
Doppler factor
Unknown
Orbital elements
Apogee altitude
3,730.186 km
Perigee altitude
3,667.921 km
Semi-major axis
10,077.191 km
Eccentricity
0.00309
Inclination
88.4318°
RAAN
224.1804°
Arg. of periapsis
295.7051°
True anomaly
64.37999°
Mean anomaly
64.0611°
Eccentric anomaly
64.22049°
Mean motion
2.14553 °/min
Orbital period
167.79 mins
BSTAR
0.009386
Loading maneuver chart data...
Computing Atmospheric mass density...
Loading historical data...
Loading historical data...
Loading historical data...
Loading historical data...
Loading historical data...
Loading historical data...
Loading historical data...

Documentation

Showing up to 5 results
|